This is the latest recevied weather packets stored in our database for station/object SQ9PDE-13. If no packets are shown the sender has not sent any weather packets the latest 10 day(s).
| Time | Temp. | Humidity | Pressure | Rain* | Wind** | Luminosity | Snow |
|---|---|---|---|---|---|---|---|
| 1787908738 | 25.56° C | 38% | 1018.4 hPa | - | - | - | - |
| 1787908437 | 26.67° C | 36% | 1018.5 hPa | - | - | - | - |
| 1787908137 | 26.11° C | 38% | 1018.6 hPa | - | - | - | - |
| 1787907836 | 26.11° C | 38% | 1018.5 hPa | - | - | - | - |
| 1787907536 | 26.11° C | 38% | 1018.6 hPa | - | - | - | - |
| 1787906935 | 26.11° C | 38% | 1018.8 hPa | - | - | - | - |
| 1787906634 | 26.11° C | 39% | 1018.7 hPa | - | - | - | - |
| 1787906334 | 25° C | 39% | 1019 hPa | - | - | - | - |
| 1787903472 | 22.78° C | 41% | 1019.5 hPa | - | - | - | - |
| 1787903172 | 21.67° C | 42% | 1019.5 hPa | - | - | - | - |
| 1787902871 | 21.67° C | 42% | 1019.5 hPa | - | - | - | - |
| 1787902571 | 21.11° C | 41% | 1019.2 hPa | - | - | - | - |
| 1787902112 | 22.78° C | 40% | 1019.2 hPa | - | - | - | - |
| 1787901970 | 22.78° C | 40% | 1019.2 hPa | - | - | - | - |
| 1787901669 | 23.33° C | 40% | 1019.5 hPa | - | - | - | - |
| 1787901369 | 22.78° C | 41% | 1019.4 hPa | - | - | - | - |
| 1787901068 | 22.78° C | 40% | 1019.6 hPa | - | - | - | - |
| 1787900768 | 23.33° C | 41% | 1019.6 hPa | - | - | - | - |
| 1787900467 | 22.78° C | 42% | 1019.8 hPa | - | - | - | - |
| 1787900166 | 22.78° C | 43% | 1020 hPa | - | - | - | - |
| 1787899866 | 22.78° C | 44% | 1020 hPa | - | - | - | - |
| 1787899566 | 21.67° C | 45% | 1019.9 hPa | - | - | - | - |
| 1787899265 | 22.22° C | 45% | 1020 hPa | - | - | - | - |
| 1787898964 | 21.11° C | 45% | 1020.2 hPa | - | - | - | - |
| 1787898664 | 21.11° C | 47% | 1020.2 hPa | - | - | - | - |
* Rain since midnight (hover to see other rain measurements)
** Current wind speed in m/s (hover to see current wind gust speed)